SL-12 R/B(2), 18387

Orbit data source: Space-Track

SL-12 R/B(2), 18387 is space debris in GEO originally from a launch on Thu, 01 Oct 1987 UTC launched from the Tyuratam Missile And Space Complex (TTMTR). Debris objects in space refer to the collection of defunct objects orbiting the Earth. Examples of debris include non-operational satellites, rocket bodies, and fragments generated from explosions, collisions, or faulty payload assembly.

Loading next visibility...
SL-12 R/B(2) details
Identifier
18387, 1987-084D
Orbit
GEO
Last TLE update10 hours ago
Origin
Flag of CISRVSN (CIS)
ManufacturerNPO Energiya
MissionSpacecraft
Bus & MotorBLOK DM, Unknown motor
Mass2,440 kg wet, 2,440 kg dry
Launch date (UTC)
1987-10-01 (37 years ago)
Launch vehicleUnknown
Launch site
Tyuratam Missile And Space Complex (TTMTR)
Object type
Payload
Rocket body
Debris
Shape & HBRCyl, 6.27 m
Radar Cross Section23.597 m², Large (>1 m²)

Expand to show TLE details & history

TLE from 10 hours ago
0 SL-12 R/B(2)
1 18387U 87084D   24361.13849244  .00000080  00000-0  00000-0 0  9993
2 18387  11.7002 330.2061 0030146 235.9963 129.2393  1.00054821143396
Epoch: 2024-12-26T03:19Z
Definitive object data (Epoch: 2024-12-26T03:19:25.746Z)
Latitude1.11382°
Longitude-169.39964°
Altitude35,927.036 km
Speed3.067 km/s
True Right ascension22h 22m 19s
True Declination1° 06' 46"
Sunlit
Object was in daylight at TLE epoch
Visualization TLE readout
Latitude4.23497°
Longitude-15.6784°
Altitude35,818.876 km
Speed3.075 km/s
Apparent Right ascension08h 11m 55s
Apparent Declination-1° 21' 50"
Sunlit
Object is in daylight
Visualization observer readout
Local Sidereal Time12:55:58
Azimuth256.499° W
Elevation13.544°
Doppler factor1
Orbital elements
Apogee altitude35,975.829 km
Perigee altitude35,721.236 km
Semi-major axis42,226.669 km
Eccentricity0.0030146
Inclination11.7002°
RAAN330.2061°
Arg. of periapsis235.9963°
True anomaly129.50622°
Mean anomaly129.2393°
Eccentric anomaly129.37282°
Mean motion0.25013 °/min
BSTARUnknown
Orbital period1439.26 mins
Loading historical data...
18387 neighbors
Authenticating...
Loading maneuver chart data...
Loading historical data...
Loading historical data...
Loading historical data...
Loading historical data...
Loading historical data...
Loading historical data...
Loading historical data...

SL-12 R/B(2) Visibility forecast

Observer location: undefined°, undefined

Span
Click to sort rows by Start time (UTC) header in descending order
Start Az.
Max El. time (UTC)
Max El. Az.
Max El.
End time (UTC)
End Az.
88 mins2024-12-26 13:34:16.679Z256.484° W2024-12-26 13:34:16.679Z256.484° W13.175°2024-12-26 15:02:16.679Z253.315° W
646 mins2024-12-27 02:48:16.679Z252.934° W2024-12-27 09:20:16.679Z263.267° W17.113°2024-12-27 13:34:16.679Z257.012° W
|